"Pseudo-MPEC" for P10Yc9C

Created 2020 Mar 29 6:07:11 UT using Find_Orb

Click here for an explanation of pseudo-MPECs

 
 Astrometry: 
     P10Yc9C  C2020 03 24:'CvEU=L+l2=K!u.75![JS1RV!W1H6IbqF8UB-.JM0y5!i769jGFF51
     P10Yc9C  C2020 03 24##1K9Zhe'[)6$j8fnAstrometry?vHUQ7Fredacted;hPjivjlyUF51
     P10Yc9C  C2020 03 24rmj`2Kfm.Kxn8F44nC@+C.63wfWclickD@2gVy'Bl5ygGV4[D\XdF51
     P10Yc9C  C2020 03 25B!LX4JxEnX0_hf^pbQ+;IscYaD#CWBeXnwGrvlfn$PTmp8chere3K93
     P10Yc9C  C2020 03 25CHNFu7%\6]m%E%MCLFssfgwquDghaT10)2+@7BVt#SG)'DU'=NG_K93
     P10Yc9C  C2020 03 25r4$:fnhPw57WNfY,?[5%D[wM]\-Up1foroMwd;'ao=Y`NbL.nFC]K93
     P10Yc9C  C2020 03 25FH'\ET?[at,Mj3$T(,owIO]wkd__0\BV+#8*2W@M,v9%*A1y4(UeK93
     P10Yc9C KC2020 03 28M?%2Oa.`FfR+x0KKp+LFD+P?p)7*flI9f(explanation;jhUjT.J04
     P10Yc9C KC2020 03 28uRr$h+*4)5dH_G9C3,l'Lu-A?Ow/*++\#_:kkDYN3wQrDj;2Pbm]J04
     P10Yc9C KC2020 03 28DVOAe3LJp)0dtUc-)v*ZIN%:U-X=aVskw_$#cN`s94NA2RKF!SK@J04

Station data:
(F51) Pan-STARRS 1, Haleakala  (N20.707235 W156.255910)  US/Hawaii.
   Observers N. Primak, A. Schultz, S. Watters, J. Thiel, T. Goggia. Measurer
   PS1 Science Consortium. 1.8-m Ritchey-Chrétien + CCD.
(J04) ESA Optical Ground Station, Tenerife  (N28.300924 W16.511830)  Canary
   Islands (Spain).  Observer D. Abreu. Measurers M. Micheli, D. Koschny, E.
   Schwab, M. Busch, A. Knöfel. 1.0-m f/4.4 reflector + CCD.
(K93) Sutherland-LCOGT C  (S32.380670 E20.810110)  South Africa.  Observer R.
   Miles. 1.0-m f/8.0 Ritchey-Chrétien + CCD.

Orbital elements:  P10Yc9C
   Perihelion 2021 May 7.815188 +/- 14.8 TT = 19:33:52 (JD 2459342.315188)
Epoch 2020 Mar 28.0 TT = JDT 2458936.5   Earth MOID: 0.7341   AutoNEOCP
M 203.34988410 +/- 6                (J2000 ecliptic)
n   0.38601343 +/- 0.00881          Peri.  141.91896 +/- 5.0
a   1.86810421 +/- 0.0284           Node   206.91770 +/- 0.8
e   0.0825537 +/- 0.0161            Incl.   20.34047 +/- 1.4
P   2.55/932.59d           H 19.2   G  0.15   U  9.6  
q 1.71388523 +/- 0.00558    Q 2.02232319 +/- 0.0596
From 10 observations 2020 Mar. 24-28; mean residual 0".08
Residuals in arcseconds: 
200324 F51  .02-  .04-    200325 K93  .04+  .08+    200328 J04  .10-  .16-    
200324 F51  .05+  .05-    200325 K93  .03+  .03-    200328 J04  .09-  .12+    
200324 F51  .03-  .09+    200325 K93  .13-  .03-    
200325 K93  .06+  .02-    200328 J04  .18+  .03+    

Ephemerides (geocentric):
Date (UTC) HH   RA              Dec         delta   r     elong  mag " sig PA
---- -- -- --  -------------   -----------  ------ ------ -----  --- ---- ---
2020 03 29 06  12 23 39.185   -15 38 40.44  1.0243 2.0110 167.6 21.2 .735 167
2020 03 29 07  12 23 36.740   -15 37 51.44  1.0242 2.0110 167.7 21.2 .781 168
2020 03 29 08  12 23 34.296   -15 37 02.42  1.0241 2.0110 167.7 21.2 .827 169
2020 03 29 09  12 23 31.851   -15 36 13.37  1.0241 2.0110 167.7 21.2 .875 170
2020 03 29 10  12 23 29.408   -15 35 24.29  1.0240 2.0110 167.7 21.2 .923 170
2020 03 29 11  12 23 26.964   -15 34 35.18  1.0240 2.0110 167.7 21.2 .972 171
2020 03 29 12  12 23 24.521   -15 33 46.05  1.0239 2.0109 167.8 21.2 1.02 172
2020 03 29 13  12 23 22.078   -15 32 56.89  1.0238 2.0109 167.8 21.2 1.07 172
2020 03 29 14  12 23 19.635   -15 32 07.71  1.0238 2.0109 167.8 21.2 1.12 173
2020 03 29 15  12 23 17.193   -15 31 18.50  1.0237 2.0109 167.8 21.2 1.17 173
2020 03 29 16  12 23 14.750   -15 30 29.26  1.0236 2.0109 167.8 21.2 1.23 174
2020 03 29 17  12 23 12.309   -15 29 40.00  1.0236 2.0109 167.9 21.2 1.28 175
2020 03 29 18  12 23 09.867   -15 28 50.71  1.0235 2.0109 167.9 21.2 1.33 175
2020 03 29 19  12 23 07.426   -15 28 01.39  1.0234 2.0108 167.9 21.2 1.39 175
2020 03 29 20  12 23 04.986   -15 27 12.05  1.0234 2.0108 167.9 21.2 1.44 176
2020 03 29 21  12 23 02.545   -15 26 22.68  1.0233 2.0108 167.9 21.2 1.50 176
2020 03 29 22  12 23 00.106   -15 25 33.28  1.0233 2.0108 168.0 21.2 1.55 177
2020 03 29 23  12 22 57.666   -15 24 43.86  1.0232 2.0108 168.0 21.2 1.61 177
2020 03 30 00  12 22 55.227   -15 23 54.42  1.0231 2.0108 168.0 21.2 1.67 177
2020 03 30 01  12 22 52.788   -15 23 04.95  1.0231 2.0107 168.0 21.2 1.73 178
2020 03 30 02  12 22 50.350   -15 22 15.45  1.0230 2.0107 168.0 21.2 1.79 178
2020 03 30 03  12 22 47.912   -15 21 25.92  1.0230 2.0107 168.0 21.2 1.85 178
2020 03 30 04  12 22 45.474   -15 20 36.38  1.0229 2.0107 168.1 21.2 1.91 179
2020 03 30 05  12 22 43.037   -15 19 46.80  1.0228 2.0107 168.1 21.2 1.97 179
2020 03 30 06  12 22 40.601   -15 18 57.20  1.0228 2.0107 168.1 21.2 2.03 179
2020 03 30 07  12 22 38.165   -15 18 07.58  1.0227 2.0107 168.1 21.2 2.09   0
2020 03 30 08  12 22 35.729   -15 17 17.93  1.0227 2.0106 168.1 21.2 2.15   0
2020 03 30 09  12 22 33.293   -15 16 28.26  1.0226 2.0106 168.1 21.2 2.22   0
2020 03 30 10  12 22 30.859   -15 15 38.56  1.0226 2.0106 168.2 21.2 2.28   1
2020 03 30 11  12 22 28.424   -15 14 48.84  1.0225 2.0106 168.2 21.2 2.35   1
2020 03 30 12  12 22 25.990   -15 13 59.09  1.0225 2.0106 168.2 21.2 2.41   1
2020 03 30 13  12 22 23.557   -15 13 09.32  1.0224 2.0106 168.2 21.2 2.48   1
2020 03 30 14  12 22 21.124   -15 12 19.52  1.0224 2.0106 168.2 21.2 2.54   2
2020 03 30 15  12 22 18.692   -15 11 29.70  1.0223 2.0105 168.2 21.2 2.61   2
2020 03 30 16  12 22 16.260   -15 10 39.85  1.0222 2.0105 168.2 21.2 2.68   2
2020 03 30 17  12 22 13.828   -15 09 49.99  1.0222 2.0105 168.3 21.2 2.74   2
2020 03 30 18  12 22 11.398   -15 09 00.09  1.0221 2.0105 168.3 21.2 2.81   3
2020 03 30 19  12 22 08.967   -15 08 10.17  1.0221 2.0105 168.3 21.2 2.88   3
2020 03 30 20  12 22 06.538   -15 07 20.23  1.0220 2.0105 168.3 21.2 2.95   3
2020 03 30 21  12 22 04.108   -15 06 30.27  1.0220 2.0104 168.3 21.2 3.02   3
2020 03 30 22  12 22 01.680   -15 05 40.28  1.0219 2.0104 168.3 21.2 3.09   4
2020 03 30 23  12 21 59.252   -15 04 50.27  1.0219 2.0104 168.3 21.2 3.17   4
2020 03 31 00  12 21 56.824   -15 04 00.23  1.0218 2.0104 168.3 21.2 3.24   4
2020 03 31 01  12 21 54.397   -15 03 10.17  1.0218 2.0104 168.4 21.2 3.31   4
2020 03 31 02  12 21 51.971   -15 02 20.09  1.0218 2.0104 168.4 21.2 3.38   4
2020 03 31 03  12 21 49.545   -15 01 29.99  1.0217 2.0103 168.4 21.2 3.46   5
2020 03 31 04  12 21 47.120   -15 00 39.86  1.0217 2.0103 168.4 21.2 3.53   5
2020 03 31 05  12 21 44.695   -14 59 49.71  1.0216 2.0103 168.4 21.2 3.61   5